Location: Moreno
(33.9175°N, 117.1578°W)
Time: 15:54:12
(UTC+00:00)

Chandra Rocket (1) - Pass Details

Date: 18 April 2024
Orbit: 293 x 10894 km, 28.4° (Epoch: 20 May)

Event Time Altitude Azimuth Distance (km) Brightness Sun altitude
Exits shadow 12:05:03 25° 224° (SW) 968 2.5 -14.2°
Maximum altitude 12:06:27 39° 171° (S) 850 2.6 -14.0°
Drops below altitude 10° 12:12:29 10° 103° (ESE) 3,231 6.6 -12.8°
Sets 12:17:52 0° 98° (E) 5,549 8.0 -11.8°
